Temp
13 13 13 13 12 12 12 12 12 12 11 11 11 11 11 11 10 10 10 10 10 10 10 10 10 11 11 11 10 11 11 11 11 11 10 10 10 10 10 10 10 9
13 12 12 12 12 12 12 12 12 11 11 11 11 10 11 10 10 10 10 10 10 10 10 10 10 10 10 10 10 10 10 10 10 10 10 10 10 10 10 10 9 9
12 12 12 12 12 12 12 11 11 11 11 11 11 10 10 10 10 10 10 10 10 10 10 10 10 10 10 10 10 10 10 10 10 10 10 10 9 9 9 9 9 8
12 11 12 12 12 12 11 11 11 11 11 11 11 11 11 10 10 10 10 10 10 10 10 9 9 10 10 10 10 10 10 10 10 10 10 9 9 9 9 9 8 8
11 11 11 12 11 11 11 11 11 11 11 11 11 11 11 10 10 10 10 10 9 9 9 9 9 9 9 9 9 9 9 9 9 9 9 9 9 9 9 8 8 7
11 11 11 11 11 11 11 11 11 11 11 11 11 11 10 10 10 10 9 9 9 9 9 9 9 9 9 9 9 9 9 9 9 9 9 9 9 9 8 8 7 7
11 11 11 11 11 11 11 11 11 11 10 10 10 10 10 10 10 9 9 9 9 8 8 8 8 9 9 9 9 9 9 9 9 9 9 9 9 8 8 7 7 6
11 11 11 11 11 11 11 11 11 11 10 10 10 10 10 10 9 9 9 8 8 8 8 8 8 8 9 9 9 9 9 9 9 9 9 9 8 8 8 7 7 6
11 11 11 11 11 11 11 10 10 10 10 10 10 10 10 9 9 9 8 8 7 7 8 8 7 8 8 8 8 8 9 9 9 9 9 8 8 8 7 7 6 6
11 11 11 11 11 10 10 10 10 10 10 10 10 10 10 9 9 8 8 7 7 7 7 7 7 7 8 8 8 8 8 9 9 8 8 8 8 8 7 7 6 6
11 11 11 11 10 10 10 10 10 10 10 10 10 10 9 9 8 8 8 7 7 6 6 6 6 7 7 8 8 8 8 8 8 8 8 8 8 7 7 7 7 6
11 10 10 10 10 10 10 10 10 10 10 10 10 9 9 8 8 8 7 7 6 6 6 6 6 6 7 7 8 8 8 8 8 8 8 8 8 7 7 7 7 6
10 10 10 10 10 10 10 10 10 10 10 9 9 9 9 8 8 7 7 7 6 5 5 5 6 6 7 7 7 8 8 8 8 8 8 8 8 7 7 7 7 6
10 10 10 10 10 10 10 10 10 10 10 9 9 9 8 8 8 7 7 6 6 5 5 5 6 6 7 7 7 8 8 8 8 8 8 8 8 7 7 7 7 6
10 10 10 10 10 10 10 10 10 10 9 9 9 9 8 8 8 7 6 6 5 5 5 5 6 6 6 7 7 8 8 8 8 8 8 8 8 7 7 7 7 6
10 10 10 10 10 10 9 9 9 9 9 9 9 9 8 8 8 7 6 6 5 5 5 6 6 6 6 7 7 7 8 8 8 8 8 8 8 7 7 7 7 7
10 10 10 10 10 9 9 9 9 9 9 9 9 9 8 8 8 7 6 6 6 6 6 6 6 6 6 7 7 7 8 8 8 8 8 8 8 8 7 7 7 7
10 10 10 9 9 9 9 9 9 9 9 9 9 8 8 8 8 7 7 6 6 6 6 6 6 6 7 7 7 7 8 8 8 8 8 8 8 8 7 7 7 7
10 10 10 9 9 9 9 9 9 9 9 8 8 8 8 8 8 7 7 7 7 6 6 6 6 6 7 7 7 7 7 8 8 7 7 7 8 8 7 7 7 6
10 10 10 9 9 9 9 9 8 8 8 8 8 8 8 8 8 8 7 7 7 7 6 6 6 6 7 7 7 7 7 7 7 7 7 7 7 7 7 7 7 6
10 10 10 10 9 9 9 9 8 8 8 8 8 8 8 8 7 7 7 7 7 7 6 6 6 7 7 7 7 7 7 6 6 6 7 7 7 7 6 7 7 6
10 10 10 10 9 9 9 9 8 8 8 8 8 8 8 8 7 7 7 7 7 7 6 6 6 7 7 7 7 7 6 6 6 6 6 7 7 6 6 6 6 6
10 10 10 9 9 9 9 9 9 9 8 8 8 8 8 7 7 7 7 7 7 7 6 6 6 6 6 7 7 6 6 6 6 6 6 6 6 6 6 6 6 6
10 10 10 9 9 9 9 9 9 9 8 8 8 8 8 8 8 7 7 7 7 7 7 6 6 6 6 6 6 6 5 5 5 5 5 6 6 6 6 6 6 6
10 10 10 9 9 9 9 9 9 9 9 8 8 8 8 8 8 8 7 7 7 7 7 6 6 6 6 6 6 5 5 4 4 4 5 5 5 5 6 6 6 6
10 10 10 9 9 9 9 9 9 9 9 9 9 8 8 8 8 8 8 7 7 7 7 7 7 6 6 6 6 5 5 4 4 4 4 4 5 5 5 5 5 6
Height
842 843 844 846 848 850 851 852 852 853 854 854 854 854 854 854 854 854 854 854 855 855 855 855 855 855 855 854 854 853 853 852 852 853 852 852 852 851 850 849 848 848
843 844 846 847 849 851 852 852 852 853 854 854 854 854 854 855 855 855 856 856 856 856 856 856 856 855 855 854 854 854 854 854 854 854 854 853 853 852 851 851 850 849
844 845 847 848 849 851 851 852 853 853 854 854 854 855 855 856 856 857 857 857 857 857 857 857 856 856 855 855 855 855 855 855 855 855 855 854 853 853 852 852 851 850
845 846 847 849 850 851 851 852 853 853 854 855 855 856 856 857 858 858 858 858 858 858 857 857 856 856 856 856 856 856 856 856 856 856 855 855 854 854 853 853 852 851
846 847 848 849 850 851 851 852 853 854 854 855 856 857 858 858 858 859 859 859 858 858 857 857 857 857 857 857 858 858 858 857 857 857 856 856 855 855 854 854 853 853
846 847 848 849 850 851 852 852 854 854 855 856 857 858 858 859 859 859 859 859 858 858 857 857 857 857 858 858 859 859 859 859 858 858 857 856 856 856 855 854 854 854
846 847 848 849 850 851 852 853 854 855 856 857 858 859 859 859 859 859 859 859 858 858 858 858 858 858 859 859 859 859 860 859 859 858 858 857 857 857 856 855 855 855
846 847 848 849 850 852 853 854 855 856 857 858 859 859 860 859 859 859 859 859 858 858 858 858 859 859 860 860 860 860 860 860 859 859 858 858 857 858 857 856 856 856
845 847 848 850 851 853 854 855 856 857 858 859 859 860 860 860 860 860 860 859 859 859 859 859 859 860 860 860 860 860 860 860 860 859 859 858 858 858 858 858 857 857
846 847 849 851 852 853 855 856 857 858 859 859 860 860 860 860 860 860 860 860 859 859 859 859 860 861 861 861 860 860 860 860 860 860 860 859 859 859 859 859 858 858
846 848 850 851 853 854 855 856 857 858 859 860 860 860 860 860 861 861 861 860 860 860 860 860 861 861 861 861 861 861 860 860 861 861 861 860 859 859 859 859 859 858
847 848 850 852 853 854 855 856 857 858 859 860 860 860 860 861 861 862 861 861 861 861 861 862 862 862 862 862 862 862 861 861 861 861 861 861 860 859 859 859 859 858
846 848 850 852 853 854 855 856 857 859 859 860 860 860 861 862 862 862 862 862 862 862 862 863 862 862 863 863 863 862 862 861 861 861 861 861 860 860 859 859 859 859
846 848 850 852 853 853 854 856 857 859 860 860 861 861 862 862 863 863 863 863 863 863 863 863 863 863 863 863 863 863 862 862 862 862 861 861 861 860 859 859 859 859
846 848 850 852 853 853 854 856 858 859 860 860 861 862 862 863 864 864 864 864 864 864 864 864 864 864 864 864 863 863 863 863 862 862 862 861 861 860 859 859 859 858
846 848 850 851 852 853 854 856 858 859 860 861 861 862 862 864 864 865 865 865 865 865 865 865 865 864 864 864 864 864 863 863 862 862 862 861 861 860 859 859 858 858
846 848 850 851 852 853 855 857 858 859 860 861 861 862 863 864 865 866 866 866 866 866 866 865 865 865 865 865 864 864 863 863 863 862 862 861 861 860 860 859 858 858
846 848 849 851 852 853 855 857 858 859 860 861 861 862 863 864 865 866 866 867 867 866 866 866 865 865 865 865 864 864 863 863 862 862 862 861 861 860 859 859 858 857
846 848 849 851 852 854 856 857 858 859 860 861 862 863 864 864 866 867 867 867 867 867 866 866 866 865 865 864 864 864 863 863 862 862 861 861 861 860 859 858 858 857
846 847 849 851 852 854 856 857 858 859 860 861 862 863 864 865 866 866 867 868 867 867 867 866 866 865 864 864 864 864 863 863 862 861 861 860 860 859 858 858 857 857
845 847 849 850 852 854 856 857 858 859 860 861 862 863 864 865 866 866 867 867 867 867 867 866 866 865 864 864 864 864 863 862 862 861 860 860 860 859 859 858 857 857
844 846 848 849 851 854 856 857 858 858 860 861 862 864 865 865 866 866 866 867 867 867 867 866 866 865 864 864 864 863 863 862 861 861 860 860 860 859 859 859 858 857
844 845 847 849 851 853 855 856 857 858 860 861 862 864 864 865 866 866 867 867 867 867 867 866 866 865 865 864 864 863 863 862 861 860 859 859 859 859 859 858 858 857
843 845 846 848 851 853 855 856 857 858 860 861 862 863 864 865 865 866 867 867 867 867 867 866 866 866 865 865 864 864 863 862 861 860 859 859 859 858 858 858 858 857
842 844 846 848 850 852 854 855 856 858 860 861 862 863 863 864 865 866 866 867 866 866 866 866 866 866 866 865 865 864 863 862 862 861 860 859 859 859 858 858 857 856
842 844 846 848 850 852 853 855 856 857 859 860 861 862 863 864 864 865 866 866 866 866 866 866 866 866 866 866 865 864 863 863 862 861 860 860 859 859 859 858 856 855
Wind_Speed
14 16 19 19 19 19 18 17 15 15 15 14 14 15 15 17 17 16 17 17 17 18 18 17 16 15 16 17 16 16 18 18 18 17 16 17 17 17 19 19 20 21
15 16 18 19 20 19 17 16 16 16 15 15 15 16 16 17 17 17 17 17 17 17 17 17 17 16 16 16 17 17 17 18 17 16 16 17 17 17 18 19 19 20
15 16 18 18 19 18 16 16 16 16 16 16 16 16 17 16 17 17 17 16 16 16 16 17 17 17 17 16 16 17 17 18 17 16 16 17 17 16 17 19 20 20
15 15 16 16 17 17 16 16 17 17 17 16 16 16 16 16 16 16 16 16 16 15 15 16 16 17 17 16 16 17 17 17 16 15 16 17 16 16 17 19 20 20
15 15 15 16 17 17 17 17 17 17 17 17 16 16 16 16 15 15 15 16 16 15 14 15 15 15 16 16 16 16 16 16 15 15 16 17 16 16 16 17 19 20
16 17 17 17 17 18 18 18 17 17 17 17 17 16 16 16 15 14 14 14 14 14 13 13 14 13 14 14 15 15 14 14 14 14 15 16 16 16 16 17 18 20
18 18 18 18 18 18 19 18 17 17 17 17 17 16 15 15 15 14 13 13 12 12 12 11 12 12 12 14 15 15 14 13 13 13 14 15 15 16 17 17 18 20
20 20 20 20 20 20 19 19 18 18 17 17 17 16 16 16 16 14 13 13 12 11 10 10 10 11 12 13 15 15 14 13 13 13 14 15 15 16 17 17 18 20
21 20 19 19 20 20 19 18 18 18 18 18 18 16 16 15 14 14 13 12 12 12 11 10 10 11 13 12 13 14 14 13 12 13 14 15 15 15 15 16 17 18
20 20 21 21 20 20 19 19 18 18 18 18 18 17 15 14 13 12 12 12 12 12 12 12 11 11 12 12 12 13 14 13 12 12 13 13 13 13 13 13 15 16
22 22 22 22 21 20 20 20 19 18 18 18 18 18 17 15 13 12 12 13 12 12 14 15 13 11 11 11 12 13 13 12 12 11 12 12 12 13 13 13 13 14
23 23 23 22 22 21 20 20 19 18 18 17 17 18 17 15 14 12 13 14 13 13 15 16 15 13 11 10 11 11 11 13 14 12 11 10 11 12 13 13 14 12
24 24 23 22 22 21 20 20 19 18 18 17 16 16 16 15 13 12 12 14 14 14 15 15 15 14 12 11 11 11 11 12 13 12 10 9 9 10 11 13 13 12
25 24 23 23 22 21 21 21 20 19 18 18 16 16 17 16 14 12 12 14 14 14 14 14 15 15 13 12 11 11 10 10 10 10 10 10 8 9 11 12 12 11
26 25 24 23 22 21 22 21 20 20 19 19 18 19 19 17 14 12 11 13 15 14 14 13 14 14 14 13 11 11 10 9 9 9 9 10 8 8 9 11 11 9
26 25 24 23 22 21 22 21 20 20 20 20 20 20 18 15 14 14 14 16 17 15 13 13 13 13 12 11 10 10 9 9 9 9 9 9 9 7 7 9 10 8
26 26 25 24 24 23 22 21 21 20 20 20 20 19 16 14 15 18 18 18 18 17 15 13 12 11 10 10 9 9 9 8 9 10 9 8 11 8 5 6 9 7
26 26 25 24 24 23 22 22 21 21 21 20 19 18 15 13 14 17 19 19 18 18 16 14 12 10 9 9 10 9 8 8 9 10 9 8 11 10 3 3 8 7
27 26 26 25 24 23 22 22 21 21 21 20 19 18 16 14 12 12 15 17 19 18 17 16 14 11 9 8 9 9 8 8 9 10 10 9 12 13 7 3 5 7
27 27 27 25 25 24 23 23 22 21 20 19 19 18 17 15 12 10 9 12 16 19 19 18 15 13 10 7 8 8 8 9 9 9 9 8 12 15 9 3 4 8
27 28 27 26 26 25 24 23 22 21 20 19 18 18 17 15 13 10 8 7 10 15 19 20 18 15 12 9 8 7 7 9 11 9 7 7 11 15 11 4 5 9
29 29 28 27 26 25 24 23 22 21 20 19 18 17 16 15 14 11 9 7 7 10 15 18 19 18 15 12 9 7 6 9 13 11 8 6 9 14 14 7 6 9
30 29 29 28 27 25 24 23 22 21 20 19 18 17 15 14 14 13 10 7 6 8 11 15 17 18 16 13 11 9 8 11 14 14 12 8 7 12 15 11 8 11
30 30 29 28 27 25 24 23 22 21 19 18 17 16 15 14 14 13 12 9 8 9 9 11 14 16 15 14 13 13 13 13 15 16 14 11 8 9 13 13 11 12
30 30 29 28 26 25 24 22 21 20 18 17 16 15 14 13 12 11 10 8 7 8 8 9 11 13 14 13 12 14 15 14 15 16 15 13 11 10 10 12 12 13
30 29 28 28 26 25 23 22 21 20 18 17 16 15 14 12 9 7 7 6 5 4 5 7 9 11 13 13 12 12 13 14 15 16 15 13 12 10 10 12 14 16
Wind_Direction
129 127 127 127 127 125 122 120 119 116 110 106 103 97 90 85 79 77 79 80 80 77 74 73 71 71 70 65 64 65 62 60 59 55 51 51 51 52 49 45 41 41
129 129 129 128 127 124 119 117 120 118 109 103 100 96 92 87 81 78 77 78 79 78 76 74 70 68 67 65 65 64 61 60 60 57 55 52 51 51 48 49 48 44
132 133 131 129 128 125 120 120 119 115 109 104 99 95 93 89 85 81 78 77 76 77 77 75 71 67 64 63 64 63 59 59 60 60 58 53 52 51 48 52 55 51
139 137 132 128 130 127 122 120 117 114 111 108 103 98 94 92 91 88 83 80 76 76 77 75 72 69 66 62 62 62 59 58 59 61 60 56 54 53 49 52 56 51
139 140 136 133 133 130 125 122 120 118 116 112 110 105 100 97 95 92 88 84 79 77 79 76 75 75 72 67 62 59 58 58 59 59 59 57 54 53 50 52 54 49
142 142 141 140 137 132 127 124 122 121 117 114 112 109 104 100 95 91 88 86 81 80 80 79 78 79 77 73 68 63 58 58 59 58 58 58 56 53 53 54 52 47
148 143 139 136 135 131 128 125 124 122 118 115 113 108 103 100 96 90 86 83 81 77 78 81 81 83 83 76 71 67 62 60 62 60 60 62 59 54 54 53 49 46
144 140 136 134 133 132 130 128 126 124 122 119 115 110 106 102 96 88 82 79 75 70 75 83 85 90 93 82 72 70 66 62 62 60 62 66 64 59 56 52 47 45
137 135 136 135 133 131 130 128 126 125 123 120 115 111 108 102 95 88 81 76 68 62 66 80 93 101 102 88 73 69 68 65 62 60 63 67 67 61 55 51 48 43
137 137 138 137 134 133 132 129 127 125 122 118 114 111 108 102 96 88 81 72 64 61 63 73 91 107 108 93 74 71 73 70 66 62 61 63 65 62 56 53 47 37
141 140 139 138 137 136 132 130 128 127 125 121 116 113 108 102 93 82 72 63 61 67 70 71 80 99 107 93 78 77 78 73 71 68 62 63 67 67 64 56 42 33
143 142 140 139 137 134 131 129 128 128 128 124 119 114 107 99 91 79 64 57 62 75 77 73 75 85 93 87 80 81 78 74 74 69 59 61 71 72 65 52 41 41
144 142 141 139 136 133 131 130 129 129 127 123 121 114 106 100 93 79 61 55 65 77 78 74 76 80 83 82 77 77 78 76 74 69 57 57 74 77 65 54 48 49
144 143 141 139 137 135 133 131 129 128 125 123 120 111 107 104 95 81 65 59 67 76 76 76 77 78 78 77 74 73 75 75 74 72 58 47 68 80 64 56 55 51
144 143 141 141 139 136 135 133 131 129 126 125 122 116 112 107 94 84 72 65 70 76 77 76 75 73 69 68 69 68 68 70 70 73 59 40 56 82 67 54 56 50
145 144 143 142 139 135 134 133 132 131 128 124 122 121 118 109 92 84 79 73 73 75 77 77 73 70 65 62 62 62 67 72 63 62 63 42 36 61 71 53 47 39
146 145 143 141 137 135 135 135 134 134 131 126 123 121 121 112 93 82 77 74 73 73 74 75 71 69 69 68 65 62 64 68 53 48 60 45 24 35 73 50 31 28
147 145 143 141 138 137 137 137 137 134 132 129 127 125 126 122 103 86 77 72 71 71 69 69 70 68 71 73 69 65 62 60 49 43 51 45 23 20 28 22 20 27
148 146 144 142 140 139 138 138 136 134 133 132 131 131 132 131 121 102 84 71 67 67 66 66 65 63 68 74 67 62 59 53 43 35 39 37 17 8 3 12 27 34
150 147 146 144 142 141 140 139 137 135 134 134 134 134 134 134 133 123 102 78 66 64 63 62 60 57 60 71 68 61 57 48 35 24 24 27 19 17 23 50 43 35
152 149 147 145 144 143 141 139 137 134 134 135 135 136 136 135 136 130 119 94 68 60 58 56 55 54 55 63 67 64 57 44 31 19 13 17 25 30 35 34 19 25
152 149 148 146 145 144 142 140 138 135 134 134 133 136 137 136 135 130 121 110 85 64 56 51 49 47 48 54 60 58 53 39 31 26 24 22 28 34 34 15 343 356
152 150 149 147 147 146 146 145 143 140 139 138 136 137 138 139 140 137 133 127 107 81 62 52 48 43 40 44 51 52 47 40 33 29 29 29 29 34 32 20 345 340
154 152 150 148 149 150 148 146 144 142 143 144 142 140 135 131 131 133 134 130 110 92 75 59 50 44 38 36 45 47 43 40 34 27 27 29 28 32 33 25 0 344
155 153 152 151 151 150 148 147 146 147 148 149 150 149 142 133 128 127 128 126 110 93 81 67 54 46 37 33 39 42 39 37 30 25 26 29 29 29 27 18 2 345
155 154 153 152 152 151 151 149 148 149 153 155 157 157 154 148 146 144 142 145 139 116 91 71 57 48 38 32 33 35 34 33 29 26 27 29 30 26 11 3 356 346